1504684800.29,52169,14.38,73736.5,4.53,3.97,4.05,0,*7A
1504684801.52,52170,14.38,73732.3,4.55,3.59,3.75,0,*76
1504684802.76,52171,14.38,73732.5,4.55,3.75,3.89,0,*7A
1504684803.98,52172,14.38,73738.3,4.55,3.97,4.19,0,*7B
1504684805.22,52173,14.38,73734.3,4.55,3.37,3.53,0,*79
1504684806.4,52174,14.38,73730.8,4.53,3.55,3.59,0,*76
1504684807.63,52175,14.38,73736.0,4.55,3.15,3.29,0,*72
1504684808.87,52176,14.38,73734.8,4.53,3.03,3.11,0,*7B
1504684810.07,52177,14.38,73734.5,4.53,3.49,3.59,0,*78
1504684811.27,52178,14.38,73734.0,4.51,3.25,3.25,0,*74
1504684812.52,52179,14.38,73734.0,4.51,3.15,3.23,0,*70
1504684813.75,52180,14.38,73734.3,4.49,3.07,3.19,0,*75
1504684814.95,52181,14.38,73732.0,4.49,3.81,3.97,0,*7C
1504684816.14,52182,14.38,73736.5,4.49,3.93,3.93,0,*78
1504684817.37,52183,14.38,73732.8,4.49,3.71,3.79,0,*71
1504684818.58,52184,14.38,73732.8,4.49,3.89,4.01,0,*79
1504684819.8,52185,14.38,73732.0,4.51,4.19,4.31,0,*7C
1504684820.98,52186,14.38,73734.8,4.53,4.19,4.19,0,*77
1504684822.16,52187,14.38,73734.0,4.49,3.81,3.93,0,*7E
1504684823.37,52188,14.38,73738.8,4.51,3.93,4.07,0,*71
1504684824.58,52189,14.38,73734.0,4.51,3.97,4.19,0,*7B
1504684825.81,52190,14.38,73736.5,4.51,3.93,4.05,0,*7A
1504684827.02,52191,14.38,73736.0,4.53,3.67,3.85,0,*7D
1504684828.22,52192,14.38,73736.8,4.51,3.81,4.19,0,*76
1504684829.47,52193,14.38,73736.5,4.51,3.97,4.31,0,*7A
1504684830.7,52194,14.38,73734.8,4.51,3.67,3.81,0,*7E
1504684831.91,52195,14.38,73736.5,4.53,3.79,4.07,0,*7B
1504684833.14,52196,14.38,73732.3,4.53,3.11,3.49,0,*7B
1504684834.32,52197,14.38,73734.3,4.53,3.85,4.15,0,*79
1504684835.51,52198,14.38,73732.0,4.53,4.19,4.41,0,*75
1504684836.69,52199,14.38,73732.8,4.53,4.15,4.37,0,*79
1504684837.9,52200,14.38,73734.3,4.55,4.11,4.41,0,*79
1504684839.08,52201,14.38,73736.3,4.53,4.15,4.49,0,*72
1504684840.31,52202,14.38,73732.3,4.53,2.89,3.11,0,*78
1504684841.54,52203,14.38,73732.8,4.55,3.29,3.49,0,*79
1504684842.72,52204,14.38,73736.0,4.53,3.93,4.15,0,*77
1504684843.94,52205,14.38,73734.0,4.53,3.67,3.81,0,*77
1504684845.19,52206,14.38,73732.5,4.55,3.75,3.97,0,*76
1504684846.4,52207,14.38,73732.3,4.53,4.19,4.31,0,*77
1504684847.58,52208,14.38,73734.0,4.53,4.37,4.49,0,*7B
1504684848.79,52209,14.38,73736.5,4.55,4.11,4.23,0,*74
1504684849.99,52210,14.38,73732.3,4.55,4.23,4.41,0,*79
1504684851.2,52211,14.38,73736.0,4.55,4.33,4.45,0,*7D
1504684852.41,52212,14.38,73734.8,4.57,3.79,3.93,0,*79
1504684853.64,52213,14.38,73736.0,4.53,3.33,3.45,0,*79
1504684854.89,52214,14.38,73732.8,4.55,3.37,3.49,0,*70
1504684856.13,52215,14.38,73732.8,4.55,3.15,3.25,0,*7B
1504684857.35,52216,14.38,73736.8,4.55,3.59,3.71,0,*71
1504684858.56,52217,14.38,73736.3,4.53,3.45,3.55,0,*7D
1504684859.78,52218,14.38,73738.3,4.53,3.49,3.71,0,*78
1504684860.99,52219,14.38,73736.8,4.53,3.97,4.07,0,*7C
1504684862.22,52220,14.38,73738.5,4.53,3.03,3.11,0,*7B
1504684863.45,52221,14.38,73738.3,4.53,2.55,2.73,0,*7D
1504684864.65,52222,14.38,73738.8,4.53,3.33,3.55,0,*7A
1504684865.89,52223,14.38,73738.0,4.51,3.49,3.67,0,*75
1504684867.14,52224,14.38,73738.0,4.51,3.79,3.97,0,*7E
1504684868.38,52225,14.38,73740.0,4.49,3.23,3.33,0,*77
1504684869.56,52226,14.38,73736.5,4.49,2.95,2.99,0,*79
1504684870.79,52227,14.38,73736.0,4.49,2.51,2.59,0,*7C
1504684872.03,52228,14.38,73736.8,4.47,3.07,3.29,0,*79
1504684873.25,52229,14.38,73738.0,4.47,3.33,3.55,0,*74
1504684874.49,52230,14.38,73736.8,4.47,3.75,3.89,0,*7F
1504684875.72,52231,14.38,73740.3,4.47,3.29,3.33,0,*76
1504684876.98,52232,14.38,73738.8,4.47,2.59,2.81,0,*7B
1504684878.21,52233,14.38,73736.5,4.45,2.59,2.47,0,*72
1504684879.41,52234,14.38,73732.0,4.45,2.55,2.65,0,*79
1504684880.61,52235,14.38,73734.3,4.45,2.81,2.95,0,*7E
1504684881.87,52236,14.38,73736.8,4.43,3.07,3.19,0,*71
1504684883.09,52237,14.38,73732.3,4.43,2.89,2.95,0,*72
1504684884.34,52238,14.31,73726.5,4.43,1.85,1.97,0,*73
1504684885.56,52239,14.38,73732.3,4.41,2.05,2.21,0,*75
1504684886.78,52240,14.38,73732.3,4.39,2.73,2.95,0,*7A
1504684888.0,52241,14.38,73730.8,4.39,3.33,3.63,0,*76
1504684889.2,52242,14.38,73730.8,4.35,2.95,2.99,0,*70
1504684890.42,52243,14.38,73730.3,4.35,2.89,2.95,0,*70
1504684891.62,52244,14.38,73728.5,4.33,3.25,3.37,0,*7F
1504684892.85,52245,14.38,73730.8,4.35,3.29,3.45,0,*71
1504684894.11,52246,14.38,73732.0,4.35,3.41,3.45,0,*7C
1504684895.32,52247,14.38,73728.0,4.33,2.81,2.91,0,*7E
1504684896.55,52248,14.38,73724.5,4.33,3.15,3.19,0,*7C
1504684897.8,52249,14.38,73728.8,4.35,3.45,3.53,0,*70
1504684899.02,52250,14.38,73728.8,4.35,3.63,3.67,0,*7B
1504684900.22,52251,14.38,73730.8,4.35,2.95,2.99,0,*72
1504684901.46,52252,14.38,73728.3,4.35,3.19,3.53,0,*73
1504684902.71,52253,14.38,73730.8,4.35,3.33,3.53,0,*7A
1504684903.96,52254,14.38,73728.5,4.35,2.59,2.73,0,*73
1504684905.18,52255,14.38,73728.3,4.35,2.69,2.95,0,*79
1504684906.4,52256,14.38,73730.0,4.35,2.99,3.23,0,*79
1504684907.65,52257,14.38,73728.5,4.35,3.19,3.45,0,*71
1504684908.92,52258,14.38,73728.0,4.35,3.07,3.41,0,*75
1504684910.14,52259,14.38,73728.8,4.35,2.89,2.95,0,*7B
1504684911.37,52260,14.38,73730.5,4.35,2.35,2.59,0,*76
1504684912.59,52261,14.38,73728.8,4.33,2.09,2.25,0,*75
1504684913.85,52262,14.38,73724.5,4.31,2.85,3.07,0,*71
1504684915.08,52263,14.38,73728.8,4.31,2.65,2.77,0,*78
1504684916.32,52264,14.38,73730.8,4.31,3.15,3.29,0,*73
1504684917.58,52265,14.38,73728.8,4.31,3.53,3.75,0,*79
1504684918.79,52266,14.38,73734.0,4.31,3.63,3.89,0,*7A
1504684919.98,52267,14.38,73728.3,4.33,3.53,3.63,0,*7E
1504684921.19,52268,14.38,73728.8,4.33,3.37,3.59,0,*7A
1504684922.42,52269,14.38,73732.3,4.31,2.81,2.91,0,*70
1504684923.62,52270,14.38,73732.0,4.33,2.77,2.91,0,*73
1504684924.88,52271,14.38,73734.0,4.31,2.47,2.43,0,*7C
1504684926.11,52272,14.38,73736.0,4.31,2.13,2.31,0,*7B
1504684927.32,52273,14.38,73732.8,4.29,2.51,2.65,0,*74
1504684928.55,52274,14.38,73734.3,4.27,2.47,2.59,0,*75
1504684929.75,52275,14.38,73732.0,4.27,1.79,1.85,0,*78
1504684930.99,52276,14.38,73734.3,4.25,1.67,1.97,0,*75
1504684932.19,52277,14.38,73732.5,4.23,1.83,2.01,0,*74
1504684933.38,52278,14.38,73736.8,4.23,2.09,2.31,0,*79
1504684934.6,52279,14.38,73736.3,4.23,2.01,2.21,0,*71
1504684935.83,52280,14.38,73736.3,4.23,2.01,2.21,0,*77
1504684937.05,52281,14.38,73734.3,4.19,2.43,2.55,0,*7A
1504684938.28,52282,14.38,73730.3,4.19,1.93,2.05,0,*72
1504684939.53,52283,14.38,73728.5,4.17,2.21,2.39,0,*78
1504684940.79,52284,14.38,73726.3,4.17,2.77,2.89,0,*77
1504684942.04,52285,14.38,73722.5,4.17,2.39,2.39,0,*77
1504684943.29,52286,14.38,73722.0,4.13,1.89,2.01,0,*73
1504684944.52,52287,14.38,73716.0,4.13,1.63,1.79,0,*7A
1504684945.78,52288,14.38,73708.8,4.13,2.05,2.17,0,*7D
1504684946.98,52289,14.38,73708.3,4.11,2.91,3.03,0,*77
1504684948.18,52290,14.38,73712.8,4.11,2.95,3.19,0,*70
1504684949.38,52291,14.38,73714.5,4.11,2.21,2.35,0,*71
1504684950.61,52292,14.38,73716.3,4.11,2.01,2.21,0,*75
1504684951.81,52293,14.38,73716.8,4.11,2.81,2.91,0,*77
1504684953.02,52294,14.38,73716.0,4.11,3.03,3.29,0,*79
1504684954.27,52295,14.38,73716.8,4.09,3.45,3.67,0,*79
1504684955.5,52296,14.38,73720.0,4.09,3.55,3.75,0,*78
1504684956.67,52297,14.38,73718.8,4.11,3.63,3.85,0,*7A
1504684957.9,52298,14.38,73720.3,4.13,3.71,3.89,0,*78
1504684959.16,52299,14.38,73720.8,4.17,3.53,3.75,0,*7E
1504684960.38,52300,14.38,73720.5,4.17,3.45,3.63,0,*7F
1504684961.62,52301,14.38,73716.8,4.17,3.63,3.75,0,*7D
1504684962.85,52302,14.38,73718.0,4.17,3.59,3.71,0,*73
1504684964.07,52303,14.38,73718.3,4.13,3.41,3.59,0,*75
1504684965.3,52304,14.38,73716.5,4.19,3.49,3.75,0,*7E
1504684966.52,52305,14.38,73720.5,4.19,3.53,3.75,0,*74
1504684967.78,52306,14.38,73720.0,4.21,3.75,3.97,0,*74
1504684968.97,52307,14.38,73720.3,4.19,3.49,3.63,0,*7A
1504684970.19,52308,14.38,73722.3,4.21,2.85,2.91,0,*73
1504684971.44,52309,14.38,73720.5,4.21,2.73,2.85,0,*7E
1504684972.67,52310,14.38,73722.5,4.19,3.11,3.15,0,*70
1504684973.9,52311,14.38,73726.0,4.19,3.37,3.45,0,*70
1504684975.13,52312,14.38,73724.0,4.19,2.81,2.89,0,*7E
1504684976.35,52313,14.38,73726.0,4.19,3.03,3.23,0,*75
1504684977.59,52314,14.38,73730.0,4.19,3.15,3.37,0,*70
1504684978.81,52315,14.38,73730.8,4.19,3.37,3.49,0,*78
1504684980.06,52316,14.38,73730.0,4.21,3.49,3.67,0,*75
1504684981.26,52317,14.38,73728.8,4.19,3.25,3.49,0,*79
1504684982.51,52318,14.38,73728.0,4.21,3.53,3.75,0,*73
1504684983.71,52319,14.38,73728.3,4.19,3.25,3.37,0,*7E
1504684984.97,52320,14.38,73730.3,4.21,3.15,3.37,0,*7C
1504684986.2,52321,14.38,73730.3,4.21,3.25,3.49,0,*77
1504684987.42,52322,14.38,73730.0,4.21,2.73,2.91,0,*72
1504684988.66,52323,14.38,73724.8,4.21,3.29,3.49,0,*79
1504684989.91,52324,14.38,73728.5,4.21,2.85,3.03,0,*77
1504684991.11,52325,14.38,73730.5,4.23,3.07,3.29,0,*77
1504684992.31,52326,14.38,73726.5,4.23,2.73,2.95,0,*70
1504684993.56,52327,14.38,73728.8,4.21,2.81,3.03,0,*70
1504684994.8,52328,14.38,73730.8,4.19,3.23,3.49,0,*73
1504684995.99,52329,14.38,73728.3,4.21,3.63,3.85,0,*7D
1504684997.21,52330,14.38,73728.5,4.21,3.49,3.55,0,*70
1504684998.44,52331,14.38,73726.0,4.23,3.19,3.49,0,*7B
1504684999.66,52332,14.38,73730.3,4.21,3.49,3.63,0,*77
1504685000.88,52333,14.38,73730.8,4.23,3.53,3.67,0,*7B
1504685002.1,52334,14.38,73728.8,4.23,3.19,3.37,0,*77
1504685003.29,52335,14.38,73726.3,4.23,3.49,3.55,0,*77
1504685004.52,52336,14.38,73726.0,4.25,3.93,4.05,0,*77
1504685005.72,52337,14.38,73724.8,4.23,3.63,3.79,0,*73
1504685006.92,52338,14.38,73726.0,4.25,3.59,3.89,0,*7C
1504685008.14,52339,14.38,73728.3,4.25,3.33,3.55,0,*70
1504685009.38,52340,14.38,73726.5,4.25,3.53,3.71,0,*7E
1504685010.63,52341,14.38,73726.5,4.25,3.19,3.33,0,*77
1504685011.83,52342,14.38,73724.5,4.27,3.29,3.45,0,*74
1504685013.06,52343,14.38,73726.5,4.25,2.95,3.11,0,*70
1504685014.3,52344,14.38,73722.5,4.25,2.89,3.11,0,*7A
1504685015.53,52345,14.38,73724.8,4.23,2.81,3.03,0,*76
1504685016.78,52346,14.38,73726.0,4.25,3.19,3.41,0,*75
1504685017.98,52347,14.38,73720.8,4.25,2.99,3.29,0,*73
1504685019.19,52348,14.38,73722.3,4.23,3.25,3.41,0,*72
1504685020.39,52349,14.38,73720.8,4.25,3.29,3.55,0,*7C
1504685021.61,52350,14.38,73724.8,4.25,3.55,3.67,0,*7E
1504685022.83,52351,14.38,73724.5,4.25,3.45,3.55,0,*7F
1504685024.03,52352,14.38,73726.0,4.25,3.59,3.81,0,*78
1504685025.28,52353,14.38,73724.8,4.25,3.79,4.05,0,*70
1504685026.45,52354,14.38,73728.0,4.27,3.89,4.15,0,*7B
1504685027.63,52355,14.38,73726.5,4.29,4.07,4.19,0,*79
1504685028.8,52356,14.38,73728.3,4.27,4.11,4.27,0,*7E
1504685030.04,52357,14.38,73726.8,4.29,3.75,4.05,0,*74
1504685031.25,52358,14.38,73728.8,4.29,3.63,3.71,0,*78
1504685032.48,52359,14.38,73726.3,4.31,3.41,3.59,0,*7A
1504685033.71,52360,14.38,73726.0,4.31,3.59,3.79,0,*7B
1504685034.92,52361,14.38,73724.5,4.31,4.07,4.23,0,*7E
1504685036.15,52362,14.38,73722.0,4.31,3.41,3.59,0,*72
1504685037.4,52363,14.38,73722.5,4.31,3.49,3.75,0,*75
1504685038.64,52364,14.38,73722.8,4.31,3.97,4.07,0,*73
1504685039.89,52365,14.38,73722.8,4.31,3.53,3.67,0,*7B
1504685041.09,52366,14.38,73722.3,4.33,3.67,3.85,0,*71
1504685042.33,52367,14.38,73720.5,4.31,3.75,3.89,0,*7D
1504685043.56,52368,14.38,73718.0,4.31,3.97,4.11,0,*78
1504685044.76,52369,14.38,73718.8,4.33,3.85,3.97,0,*71
1504685046.01,52370,14.38,73726.0,4.35,3.45,3.53,0,*7B
1504685047.22,52371,14.38,73724.8,4.33,3.25,3.37,0,*78
1504685048.42,52372,14.38,73722.8,4.33,3.29,3.49,0,*7E
1504685049.68,52373,14.38,73726.5,4.31,3.19,3.37,0,*77
1504685050.9,52374,14.38,73726.8,4.31,3.49,3.63,0,*74
1504685052.11,52375,14.38,73726.3,4.33,3.59,3.75,0,*71
1504685053.31,52376,14.38,73728.0,4.33,3.63,3.79,0,*77
1504685054.54,52377,14.38,73730.5,4.31,3.59,3.67,0,*72
1504685055.76,52378,14.38,73730.5,4.31,3.53,3.63,0,*73
1504685057.02,52379,14.38,73724.5,4.31,3.07,3.19,0,*7E
1504685058.26,52380,14.38,73734.0,4.33,3.03,3.15,0,*72
1504685059.49,52381,14.38,73730.8,4.31,2.95,3.07,0,*7C
1504685060.73,52382,14.38,73730.0,4.31,3.29,3.41,0,*7B
1504685061.96,52383,14.38,73728.5,4.31,3.59,3.75,0,*7A
1504685063.19,52384,14.38,73730.5,4.31,3.59,3.67,0,*7E
1504685064.43,52385,14.38,73732.0,4.33,3.41,3.49,0,*78
1504685065.65,52386,14.38,73730.5,4.31,3.63,3.79,0,*7A
1504685066.88,52387,14.38,73728.3,4.31,3.63,3.67,0,*74
1504685068.06,52388,14.38,73728.0,4.29,3.63,3.81,0,*7A
1504685069.32,52389,14.38,73728.3,4.31,3.53,3.67,0,*79
1504685070.58,52390,14.38,73734.5,4.31,3.67,3.75,0,*75
1504685071.82,52391,14.38,73732.3,4.31,3.79,3.89,0,*78
1504685073.06,52392,14.38,73734.5,4.31,3.67,3.89,0,*74
1504685074.32,52393,14.38,73732.0,4.31,3.67,3.75,0,*76
1504685075.56,52394,14.38,73736.3,4.33,3.75,3.79,0,*7C
1504685076.76,52395,14.38,73732.3,4.31,2.95,2.95,0,*73
1504685078.0,52396,14.38,73730.5,4.33,3.07,3.15,0,*71
1504685079.26,52397,14.38,73730.3,4.31,2.47,2.59,0,*7E
1504685080.52,52398,14.38,73730.0,4.31,3.15,3.07,0,*7D
1504685081.73,52399,14.38,73732.3,4.29,2.65,2.73,0,*71
1504685082.93,52400,14.38,73730.3,4.27,2.65,2.77,0,*7C
1504685084.14,52401,14.38,73734.3,4.29,3.23,3.25,0,*76
1504685085.35,52402,14.38,73732.8,4.29,3.59,3.75,0,*7D
1504685086.55,52403,14.38,73730.0,4.29,3.63,3.75,0,*75
1504685087.77,52404,14.38,73732.8,4.29,3.71,3.93,0,*79
1504685089.01,52405,14.38,73728.0,4.29,3.15,3.33,0,*70
1504685090.21,52406,14.38,73732.8,4.29,3.37,3.63,0,*76
1504685091.44,52407,14.38,73730.8,4.31,2.81,2.95,0,*7A
1504685092.62,52408,14.38,73734.5,4.29,2.65,2.91,0,*72
1504685093.85,52409,14.38,73732.0,4.29,2.01,2.21,0,*7A
1504685095.08,52410,14.38,73734.3,4.27,1.29,1.55,0,*75
1504685096.33,52411,14.38,73734.3,4.25,2.51,2.77,0,*79
1504685097.56,52412,14.38,73734.5,4.25,2.27,2.47,0,*78
1504685098.73,52413,14.38,73734.3,4.23,2.35,2.65,0,*7C
1504685099.98,52414,14.38,73732.5,4.25,2.89,3.07,0,*7F
1504685101.23,52415,14.38,73736.5,4.25,2.59,2.69,0,*7A
1504685102.47,52416,14.38,73732.3,4.25,1.89,2.01,0,*79
1504685103.7,52417,14.38,73724.8,4.23,1.93,2.09,0,*7D
1504685104.95,52418,14.38,73720.8,4.21,2.25,2.47,0,*74
1504685106.18,52419,14.38,73724.3,4.23,3.07,3.37,0,*70
1504685107.43,52420,14.38,73722.5,4.21,3.37,3.53,0,*79
1504685108.63,52421,14.38,73724.5,4.23,3.25,3.41,0,*7A
1504685109.84,52422,14.38,73724.0,4.23,3.07,3.25,0,*7B
1504685111.04,52423,14.38,73724.5,4.23,2.95,3.15,0,*73
1504685112.25,52424,14.38,73728.5,4.23,3.29,3.41,0,*73
1504685113.48,52425,14.38,73728.5,4.25,3.71,3.89,0,*7D
1504685114.67,52426,14.38,73728.3,4.23,3.55,3.67,0,*7E
1504685115.9,52427,14.38,73730.3,4.25,3.79,3.89,0,*77
1504685117.1,52428,14.38,73730.8,4.27,3.71,3.85,0,*7E
1504685118.3,52429,14.38,73730.3,4.27,3.81,4.05,0,*7F
1504685119.47,52430,14.38,73738.0,4.27,3.63,3.85,0,*74
1504685120.69,52431,14.38,73734.0,4.27,2.89,3.03,0,*7E
1504685121.92,52432,14.38,73736.0,4.29,3.15,3.37,0,*70
1504685123.12,52433,14.38,73732.8,4.27,3.41,3.55,0,*7A
1504685124.32,52434,14.38,73734.5,4.29,3.55,3.75,0,*74
1504685125.52,52435,14.38,73732.5,4.27,3.45,3.55,0,*78
1504685126.73,52436,14.38,73732.3,4.29,3.71,3.93,0,*78
1504685127.93,52437,14.38,73734.5,4.29,3.63,3.75,0,*72
1504685129.12,52438,14.38,73734.3,4.29,3.93,4.15,0,*73
1504685130.31,52439,14.38,73738.0,4.27,3.81,3.97,0,*72
1504685131.55,52440,14.38,73736.8,4.29,3.75,3.97,0,*79
1504685132.76,52441,14.38,73732.8,4.29,3.75,4.07,0,*76
1504685133.94,52442,14.38,73732.3,4.33,3.89,4.19,0,*72
1504685135.12,52443,14.38,73732.0,4.33,4.23,4.33,0,*7C
1504685136.35,52444,14.38,73732.0,4.33,3.79,3.97,0,*7A
1504685137.54,52445,14.38,73732.3,4.33,3.85,4.07,0,*76
1504685138.75,52446,14.38,73736.5,4.33,3.07,3.25,0,*78
1504685139.99,52447,14.38,73734.3,4.35,3.53,3.67,0,*78
1504685141.18,52448,14.38,73734.0,4.33,4.07,4.23,0,*70
1504685142.39,52449,14.38,73738.3,4.33,3.67,3.89,0,*77
1504685143.62,52450,14.38,73736.8,4.35,3.67,3.89,0,*79
1504685144.85,52451,14.38,73736.0,4.35,3.81,4.01,0,*77
1504685146.07,52452,14.38,73736.5,4.35,3.63,3.79,0,*70
1504685147.3,52453,14.38,73740.3,4.35,3.67,3.81,0,*72
1504685148.53,52454,14.38,73740.3,4.35,3.81,4.01,0,*72
1504685149.75,52455,14.38,73740.3,4.39,4.05,4.11,0,*75
1504685150.98,52456,14.38,73740.8,4.39,3.71,3.89,0,*74
1504685152.22,52457,14.38,73742.3,4.35,3.67,3.89,0,*7E
1504685153.45,52458,14.38,73736.3,4.35,3.89,4.05,0,*72
1504685154.68,52459,14.38,73736.5,4.39,3.93,4.05,0,*74
1504685155.88,52460,14.38,73738.8,4.39,3.89,4.11,0,*70
1504685157.1,52461,14.38,73734.8,4.41,3.11,3.23,0,*79
1504685158.33,52462,14.38,73736.5,4.41,3.03,3.23,0,*79
1504685159.56,52463,14.38,73738.8,4.39,3.41,3.63,0,*75
1504685160.79,52464,14.38,73738.3,4.39,3.29,3.41,0,*7C
1504685162.01,52465,14.38,73736.8,4.39,3.45,3.63,0,*77
1504685163.26,52466,14.38,73736.0,4.39,3.53,3.67,0,*77
1504685164.49,52467,14.38,73734.3,4.39,3.71,3.81,0,*7E
1504685165.71,52468,14.38,73736.8,4.39,4.01,4.27,0,*7A
1504685166.91,52469,14.38,73734.3,4.39,4.11,4.27,0,*7A
1504685168.1,52470,14.38,73734.8,4.41,3.97,4.19,0,*79
1504685169.3,52471,14.38,73734.3,4.43,3.85,4.07,0,*76
1504685170.5,52472,14.38,73736.3,4.43,4.11,4.23,0,*79
1504685171.7,52473,14.38,73738.5,4.43,4.07,4.19,0,*76
1504685172.95,52474,14.38,73738.3,4.43,3.79,4.01,0,*76
1504685174.17,52475,14.38,73738.0,4.43,3.85,4.01,0,*74
1504685175.38,52476,14.38,73740.3,4.43,3.89,4.07,0,*7D
1504685176.56,52477,14.38,73742.3,4.45,3.81,3.89,0,*73
1504685177.77,52478,14.38,73738.5,4.45,2.91,3.03,0,*7E
1504685178.97,52479,14.38,73736.3,4.41,3.11,3.25,0,*76
1504685180.17,52480,14.38,73738.8,4.41,3.49,3.59,0,*76
1504685181.36,52481,14.38,73738.0,4.41,3.55,3.67,0,*77
1504685182.59,52482,14.38,73742.0,4.41,2.73,2.89,0,*70
1504685183.79,52483,14.38,73742.0,4.41,2.31,2.55,0,*76
1504685185.02,52484,14.38,73740.3,4.41,2.17,2.21,0,*76
1504685186.27,52485,14.38,73734.8,4.35,2.39,2.59,0,*77
1504685187.5,52486,14.38,73740.0,4.35,2.35,2.39,0,*7E
1504685188.72,52487,14.38,73742.3,4.33,1.51,1.63,0,*74
1504685189.98,52488,14.38,73740.3,4.31,1.93,2.09,0,*78
1504685191.21,52489,14.38,73736.8,4.29,1.33,1.43,0,*77
1504685192.44,52490,14.38,73736.0,4.27,1.21,1.17,0,*73
1504685193.69,52491,14.38,73738.0,4.25,0.91,0.83,0,*76
1504685194.88,52492,14.38,73740.3,4.23,1.41,1.47,0,*76
1504685196.14,52493,14.38,73738.8,4.21,1.17,1.25,0,*72
1504685197.37,52494,14.38,73736.3,4.19,1.55,1.55,0,*7F
1504685198.6,52495,14.38,73732.5,4.13,1.63,1.75,0,*73
1504685199.83,52496,14.38,73734.5,4.17,0.67,0.71,0,*74
1504685201.05,52497,14.38,73728.5,4.11,0.87,0.79,0,*75
1504685202.29,52498,14.38,73730.5,4.09,1.83,1.85,0,*74
1504685203.52,52499,14.38,73734.0,4.09,2.59,2.61,0,*78
1504685204.75,52500,14.38,73732.5,4.09,2.13,2.35,0,*76
1504685206.01,52501,14.38,73730.8,4.09,1.85,1.85,0,*73
1504685207.27,52502,14.38,73734.5,4.09,0.91,0.91,0,*70
1504685208.52,52503,14.38,73730.0,4.05,0.51,0.51,0,*7D
1504685209.73,52504,14.38,73732.8,4.03,0.59,0.59,0,*7C
1504685210.97,52505,14.38,73730.8,4.01,0.63,0.63,0,*7F
1504685212.18,52506,14.38,73732.8,3.99,1.79,1.85,0,*79
1504685213.41,52507,14.38,73730.8,3.99,1.63,1.63,0,*7B
1504685214.67,52508,14.38,73730.8,3.97,1.55,1.67,0,*7B
1504685215.9,52509,14.38,73728.3,3.99,1.97,2.09,0,*71
1504685217.16,52510,14.38,73732.0,3.97,2.05,2.21,0,*75
1504685218.36,52511,14.38,73732.5,3.97,1.75,1.83,0,*7B
1504685219.62,52512,14.38,73724.8,3.97,1.85,1.97,0,*72
1504685220.88,52513,14.38,73722.8,3.97,1.97,2.09,0,*74
1504685222.11,52514,14.38,73720.0,3.97,1.83,1.93,0,*76
1504685223.32,52515,14.38,73720.3,3.93,2.09,2.21,0,*78
1504685224.54,52516,14.38,73726.0,3.93,0.83,0.79,0,*74
1504685225.69,52517,14.38,73724.5,3.93,0.43,0.43,0,*70
1504685226.89,52518,14.38,73722.0,3.87,0.43,0.33,0,*7D
1504685228.11,52519,14.38,73726.5,3.85,0.79,0.75,0,*75
1504685229.33,52520,14.38,73724.5,3.85,1.59,1.63,0,*7A
1504685230.58,52521,14.38,73730.5,3.83,1.93,1.93,0,*74
1504685231.82,52522,14.38,73728.8,3.83,2.09,2.21,0,*7D
1504685233.05,52523,14.38,73720.5,3.85,2.77,2.81,0,*79
1504685234.28,52524,14.38,73726.0,3.85,2.55,2.59,0,*7B
1504685235.5,52525,14.38,73728.5,3.85,3.15,3.19,0,*7A
1504685236.73,52526,14.38,73726.8,3.85,3.37,3.49,0,*7C
1504685237.97,52527,14.38,73726.8,3.89,3.41,3.45,0,*7C
1504685239.19,52528,14.38,73730.3,3.89,3.41,3.53,0,*74
1504685240.4,52529,14.38,73728.8,3.89,3.23,3.29,0,*7C
1504685241.61,52530,14.38,73724.5,3.89,3.23,3.29,0,*74
1504685242.83,52531,14.38,73722.5,3.95,3.29,3.37,0,*7D
1504685244.06,52532,14.38,73720.3,3.95,3.15,3.25,0,*72
1504685245.29,52533,14.38,73718.5,3.93,3.11,3.11,0,*76
1504685246.55,52534,14.38,73728.5,3.95,3.15,3.15,0,*77
1504685247.8,52535,14.38,73730.0,3.95,3.11,3.15,0,*72
1504685249.05,52536,14.38,73728.5,3.95,3.23,3.23,0,*75
1504685250.26,52537,14.38,73732.8,3.97,3.25,3.29,0,*7A
1504685251.47,52538,14.38,73738.5,3.97,3.25,3.25,0,*79
1504685252.68,52539,14.38,73730.5,3.99,3.25,3.41,0,*74
1504685253.89,52540,14.38,73728.8,3.99,3.25,3.33,0,*7F
1504685255.1,52541,14.38,73726.3,3.99,3.25,3.33,0,*7E
1504685256.34,52542,14.38,73724.8,3.99,3.67,3.79,0,*75
1504685257.59,52543,14.38,73730.0,4.01,3.53,3.67,0,*7A
1504685258.85,52544,14.38,73726.0,4.01,3.33,3.41,0,*7F
1504685260.08,52545,14.38,73728.5,4.01,3.25,3.33,0,*7C
1504685261.31,52546,14.38,73728.8,4.03,3.37,3.49,0,*73
1504685262.54,52547,14.38,73730.8,4.03,3.45,3.49,0,*77
1504685263.76,52548,14.38,73728.5,4.05,3.49,3.63,0,*7A
1504685264.99,52549,14.38,73734.5,4.05,3.71,3.85,0,*78
1504685266.23,52550,14.38,73732.3,4.07,3.03,3.11,0,*7A
1504685267.48,52551,14.38,73728.8,4.05,2.59,2.59,0,*7A
1504685268.74,52552,14.38,73720.3,4.05,1.55,1.55,0,*79
1504685269.92,52553,14.38,73724.8,4.03,1.83,1.83,0,*7E
1504685271.14,52554,14.38,73716.8,4.03,1.51,1.63,0,*78
1504685272.36,52555,14.38,73714.0,4.01,2.09,2.31,0,*71
1504685273.6,52556,14.38,73722.8,4.01,2.81,2.91,0,*78
1504685274.82,52557,14.38,73720.5,4.01,3.19,3.25,0,*77
1504685276.03,52558,14.38,73720.5,4.01,3.25,3.25,0,*77
1504685277.29,52559,14.38,73716.3,4.01,3.19,3.33,0,*7E
1504685278.51,52560,14.38,73712.0,4.03,3.33,3.37,0,*7A
1504685279.75,52561,14.38,73722.5,4.01,3.15,3.25,0,*7E
1504685280.92,52562,14.38,73720.5,4.03,2.95,2.99,0,*70
1504685282.12,52563,14.38,73720.8,4.03,2.89,2.95,0,*70
1504685283.3,52564,14.38,73726.5,4.03,3.29,3.29,0,*7A
1504685284.53,52565,14.38,73728.8,4.03,3.33,3.33,0,*7B
1504685285.72,52566,14.38,73722.3,4.03,3.55,3.67,0,*79
1504685286.9,52567,14.38,73720.8,4.03,3.81,3.93,0,*7A
1504685288.14,52568,14.38,73726.8,4.05,3.71,3.81,0,*7F
1504685289.33,52569,14.38,73724.5,4.07,3.53,3.63,0,*70
1504685290.55,52570,14.38,73728.3,4.07,3.49,3.53,0,*70
1504685291.78,52571,14.38,73728.0,4.09,3.55,3.75,0,*76
1504685292.99,52572,14.38,73726.8,4.09,3.85,3.89,0,*7B
1504685294.19,52573,14.38,73728.0,4.09,3.63,3.85,0,*7E
1504685295.39,52574,14.38,73730.8,4.11,3.85,3.97,0,*7B
1504685296.61,52575,14.38,73726.5,4.11,3.53,3.67,0,*7E
1504685297.82,52576,14.38,73728.5,4.13,3.81,3.93,0,*7B
1504685299.08,52577,14.38,73726.3,4.13,3.67,3.79,0,*76
1504685300.34,52578,14.38,73728.0,4.17,3.23,3.45,0,*72
1504685301.57,52579,14.38,73724.3,4.13,2.99,3.11,0,*76
1504685302.79,52580,14.38,73724.5,4.17,2.89,2.99,0,*74
1504685304.03,52581,14.38,73724.5,4.13,3.07,3.29,0,*7C
1504685305.25,52582,14.38,73724.5,4.13,3.59,3.71,0,*79
1504685306.49,52583,14.38,73724.0,4.17,3.71,3.81,0,*79
1504685307.74,52584,14.38,73726.3,4.17,3.53,3.71,0,*71
1504685308.91,52585,14.38,73726.0,4.19,3.81,3.85,0,*7A
1504685310.11,52586,14.38,73724.5,4.19,3.59,3.75,0,*73
1504685311.34,52587,14.38,73724.0,4.19,3.49,3.71,0,*77
1504685312.51,52588,14.38,73722.8,4.19,3.63,3.85,0,*7B
1504685313.76,52589,14.38,73726.0,4.21,3.67,3.79,0,*76
1504685315.0,52590,14.38,73728.3,4.21,3.67,3.89,0,*71
1504685316.23,52591,14.38,73726.5,4.21,4.01,4.07,0,*76
1504685317.45,52592,14.38,73726.3,4.23,3.53,3.75,0,*75
1504685318.64,52593,14.38,73726.5,4.23,4.01,4.19,0,*79
1504685319.82,52594,14.38,73730.5,4.23,3.85,4.07,0,*7A
1504685321.01,52595,14.38,73726.5,4.23,3.55,3.67,0,*77
1504685322.21,52596,14.38,73722.0,4.25,3.59,3.81,0,*76
1504685323.41,52597,14.38,73726.8,4.25,4.11,4.23,0,*73
1504685324.65,52598,14.38,73730.0,4.25,3.67,3.81,0,*75
1504685325.82,52599,14.38,73728.3,4.27,3.93,4.15,0,*77
1504685326.99,52600,14.38,73726.5,4.27,4.15,4.23,0,*78
1504685328.25,52601,14.38,73726.5,4.31,3.49,3.49,0,*7B
1504685329.45,52602,14.38,73728.5,4.29,3.59,3.71,0,*7B
1504685330.64,52603,14.38,73730.3,4.29,3.85,3.93,0,*77
1504685331.84,52604,14.38,73730.3,4.31,4.19,4.23,0,*77
1504685333.07,52605,14.38,73728.8,4.31,4.23,4.31,0,*7C